User: anonymous   Login
Location: Unspecified
(0.0000°N, 0.0000°E)
Time: 07:34:30
(UTC+00:00)
Language:

APRIZESAT 6 - Orbit

View from above orbital plane
View from above orbital plane
View from above satellite
View from above satellite

Ground track
Ground track

The orbit data is extracted from the following two-line orbital elements,

1 37793U 11044F   18114.90623899  .00536850  00000-0  73089-1 0  9995
2 37793  98.3294 255.1711 0045652 165.6057 323.7451 14.75703921359135
Epoch (UTC): 24 April 2018 21:44:59
Eccentricity: 0.0045652
inclination: 98.3294°
perigee height: 611 km
apogee height: 675 km
right ascension of ascending node: 255.1711°
argument of perigee: 165.6057°
revolutions per day: 14.75703921
mean anomaly at epoch: 323.7451°
orbit number at epoch: 35913

The dashed part of the orbit path shows where the satellite is in the earth's shadow,  

DLR